Погода Маслянино

Погода Маслянино : погода сейчас, прогноз погоды и архив. Всё, что Вы хотите узнать о погоде Маслянино!

Хотите узнать прогноз погоды Маслянино? Тогда Вам сюда: Погода Маслянино

Поиск расширенной информации на нашем сайте:

Другие новости

Новости СМИ2

Главная страница сайта

Новости сайта

02.10.2013

Напоминаем, что на нашем новом сайте вы можете получить высокодетализированные прогнозы погоды по пунктам России, СНГ и мира (включающие важные для авиации метеовеличины, такие как направление и скорость ветра, видимость, явления погоды, количество и форма облачности, нижняя и верхняя граница облачности), а также ознакомиться с разнообразными материалами по авиационной метеорологии и подборкой полезных ссылок на эту тему.

Сайт Метеоцентр.Азия посвящён разработке технологий оптимизации авиаметеорологического обслуживания, включая проектирование и перспективное создание нескольких автоматизированных авиаметеорологических систем:
- система выпуска высокодетальных прогностических карт явлений погоды для нижнего воздушного пространства по России и ближнему зарубежью;
- система верификации прогнозов TAF (выпускаемых синоптиками официальных АМСГ РФ и ближнего зарубежья) и AUTOTAF (выпускаемых сайтом Метеоцентр.Азия) - выявление ошибок, онлайн-сопоставление с фактической погодой METAR, автоматическое внесение коррективов в прогнозы при резком отклонении фактической погоды от прогноза, подсчёт оправдываемости прогнозов по элементам и в целом;
- система обработки, анализа и отображения авиаметеорологической информации для применения провайдерами метеорологической информации.

Рекомендуем: Ремонт - Евроремонт офиса, екатеринбург

Погода Маслянино - сегодня

Время (UTC), дата Ветер
(°,м/с) 
Видим.   Явления Облачность Т
(°С)
Тd
(°С)
f(%) Тe
(°С)
Pmin
(гПа)
dP
(гПа)
Po
(мм)
O2
(г/м3)
Тmin Tmax R s Состояние
почвы
06 20.03.17 180 (Ю) 20000 м    10/0 верхняя 
[Ci fib]
+0.9 -10.5 42 1031.7  -0.7  755  304           
09 20.03.17 200 (Ю) 20000 м    10/0 верхняя 
[Ci fib]
+2.2 -11.9 34 +2  1030.8  -0.8  754  303           
12 20.03.17 340 (С) 20000 м    ясно 
+2.5 -12.8 31 +2  1031.1  0.4  755  302    +5.5       
15 20.03.17 280 (З) 20000 м    ясно 
-8.6 -14.4 63 -8  1033.2  755  316           
18 20.03.17 тихо ()   20000 м    ясно 
-12.6 -15.5 79 -13  1033  -0.6  755  320           
21 20.03.17 тихо ()   20000 м    ясно 
-16.4 -18.3 85 -16  1033.2  -0.2  755  325           
00 21.03.17 тихо ()   20000 м    4/0 верхняя 
[Ci fib]
-18.4 -20.5 84 -18  1033.8  0.3  755  328  -18.5      76  неравномерный
сухой снег
100% 
03 21.03.17 110 (В) 20000 м    ясно 
-13.8 -15.9 84 -14  1033.3  755  322  -19.2         
06 21.03.17 180 (Ю) 20000 м    ясно 
+1.7 -8.7 46 +1  1030.2  -1.5  754  303           
09 21.03.17 070 (В) 20000 м    ясно 
+6.9 -9.9 29 +5  1028.8  -0.9  753  297           
12 21.03.17 010 (С) 20000 м    ясно 
+5.4 -11.8 28 +4  1029.4  0.5  754  299    +7.3       
15 21.03.17 310 (СЗ) 20000 м    ясно 
-2.8 -11.1 53 -4  1030.9  0.7  754  308           
18 21.03.17 150 (ЮВ) 20000 м    ясно 
-6.4 -13.6 57 -6  1031.5  0.2  754  312           
21 21.03.17 тихо ()   20000 м    ясно 
-10.5 -14.4 73 -11  1032.3  0.4  755  317           
00 22.03.17 тихо ()   20000 м    ясно 
-13.1 -15.8 80 -13  1034.1  1.5  756  321  -13.4      75  неравномерный
сухой снег
100% 
03 22.03.17 тихо ()   20000 м    ясно 
-7.6 -13.6 62 -8  1035.4  1.8  757  315           
06 22.03.17 040 (СВ) 20000 м    ясно 
+6.1 -13.7 23 +5  1034.2  0.1  757  300           
09 22.03.17 350 (С) 20000 м    ясно 
+6.5 -15.5 19 +6  1034.5  0.3  757  299           
12 22.03.17 020 (С) 20000 м    3/0 верхняя 
[Ci fib]
+4.8 -11.1 31 +4  1035.7  758  301    +6.9       
15 22.03.17 150 (ЮВ) 20000 м    ясно 
-4.2 -11.6 56 -4  1037.9  1.4  759  312           
18 22.03.17 290 (З) 20000 м    ясно 
-8.5 -11.9 76 -8  1038.4  759  317           
21 22.03.17 тихо ()   20000 м    ясно 
-12.5 -14.6 84 -13  1039.2  0.4  759  322           
00 23.03.17 тихо ()   20000 м    ясно 
-14.5 -16 88 -15  1040.2  0.8  760  325  -14.7      75  неравномерный
сухой снег
100% 
03 23.03.17 160 (Ю) 20000 м    10/0 верхняя 
[Ci fib]
-8.8 -12.4 75 -9  1040.3  0.7  761  318  -15.4         
06 23.03.17 160 (Ю) 20000 м    10/0 верхняя 
[Ci fib]
+2.6 -6.4 51 +3  1038.5  -0.7  760  304           
Время (UTC), дата Ветер
(°,м/с) 
Видим.   Явления Облачность Т
(°С)
Тd
(°С)
f(%) Тe
(°С)
Pmin
(гПа)
dP
(гПа)
Po
(мм)
O2
(г/м3)
Тmin Tmax R s Состояние
почвы

Для получения пояснительной информации подведите курсор к названию столбца.

ПОГОДА Маслянино - архив

Всё, что Вы хотите узнать о погоде Маслянино - удобно и подробно!

Выберите нужную дату (начиная с 1 января 2015* года) и нажмите кнопку "Найти".
Будут отображены архивные сводки погоды по пункту Маслянино, начиная с указанной даты.


Отображать данные в формате CSV (для использования в таблицах Excel)


Внимание! Наш архив погоды предназначен исключительно для личного некоммерческого использования в познавательных целях. Если Вам необходимы официальные справки о состоянии погоды (для производственных, юридических, коммерческих и т.п. целей), обращайтесь в органы Росгидромета.

*Примечание: данная дата относится к архиву по метеостанциям СССР (Россия, СНГ, Балтия).
Архив по метеостанциям Зарубежной Европы и Азии (кроме Китая) хранится 10 дней, по другим регионам земного шара (Китай, Африка, Америка, Австралия, Океания) - 1 день.

Маслянино - район местоположения метеостанции


Название, широта, долгота, высота метеостанции:
Маслянино 54.3°ш. 84.2°д. 198 м над ур. моря [Российская Федерация]

Дополнительная информация

В oтличие oт бoльшинства пoгoдных сайтoв мы публикуем пoдрoбную метеoинфoрмацию в детальнoм прoфессиoнальнoм фoрмате.

Характеристики температуры и влажнoсти вoздуха измеряются на высoте 2 м в тени вдали oт зданий и деревьев.
Скoрoсть ветра измеряется на высoте 10 м (на урoвне рoста челoвека скoрoсть ветра ниже в 1.5-2 раза). Если метеoстанция нахoдится в гoрoде или в лесу, тo скoрoсть ветра занижена на 2-4 м/с пo сравнению с oткрытым местoм. Скoрoсть ветра над акватoриями крупных рек и oзёр, а также на вершинах хoлмoв на 2-5 м/с выше, чем в oбычных услoвиях.
Атмoсфернoе давление в разных тoчках местнoсти мoжет значительнo oтличаться oт давления на метеoстанции, в зависимoсти oт услoвий рельефа (при пoдъёме на 10 м давление пoнижается примернo на 1 мм рт.ст.).